GEFSCGP_con_prob3kmehi_222.txt.gz
EHI
0 0 0 0 0 0 0 0 0 0 0 0 0 0 1 2 3 6 9 12 16 20 24 27 28 26 23 22 22 24 27 28 27 25 20 15 15 15 16 16 16 16 16 15
0 0 0 0 0 0 0 0 0 0 0 0 0 0 2 4 6 7 10 12 16 20 22 25 26 24 21 21 22 23 25 25 23 22 18 14 12 12 14 14 13 13 14 13
0 0 0 0 0 0 0 0 0 0 0 0 1 1 4 8 9 9 9 10 14 17 19 22 23 21 19 19 20 19 20 20 18 16 13 10 8 8 10 10 8 7 9 10
0 0 0 0 0 0 0 0 0 0 0 0 0 2 6 10 9 7 7 7 10 14 17 19 19 18 16 15 15 16 19 19 17 14 11 7 5 6 6 6 4 3 4 6
0 0 0 0 0 0 0 0 0 0 0 0 0 2 6 8 8 7 6 6 8 12 16 18 18 16 14 13 12 15 18 19 18 15 11 8 7 6 5 3 1 1 1 2
0 0 0 0 0 0 0 0 0 0 0 0 0 1 4 6 7 7 6 5 6 10 15 18 18 16 15 14 12 13 16 17 16 13 11 10 9 7 4 1 0 1 1 1
0 0 0 0 0 0 0 0 0 0 0 0 0 1 3 5 5 6 6 5 6 10 15 18 17 16 16 15 15 14 14 15 13 11 10 10 9 6 3 1 0 1 1 1
0 0 0 0 0 0 0 0 0 0 0 0 1 2 3 3 3 3 5 7 8 9 13 14 15 15 15 16 16 15 14 12 10 8 8 8 6 4 2 1 1 0 0 0
0 0 0 0 0 0 0 0 0 0 0 0 1 3 2 1 1 2 5 8 8 7 8 10 13 14 15 15 15 15 12 9 6 4 4 4 3 1 1 1 1 1 0 0
0 0 0 0 0 0 0 0 0 0 0 0 1 1 1 1 2 3 4 6 6 5 6 8 11 13 14 14 14 14 12 8 4 3 2 1 1 0 0 1 1 1 0 0
0 0 0 0 0 0 0 0 0 0 0 0 0 0 1 3 3 3 4 6 6 5 6 8 10 12 13 13 13 14 12 8 4 3 1 1 0 0 0 0 0 0 0 0
0 0 0 0 0 0 0 0 0 0 0 0 0 0 2 3 2 2 3 5 6 6 7 9 11 12 13 13 12 12 9 6 4 3 1 1 1 1 0 0 0 0 1 1
1 1 1 0 0 0 0 0 0 0 0 0 0 0 1 1 1 1 2 5 6 7 8 10 12 13 13 12 11 9 7 5 4 3 2 2 2 2 1 1 1 1 1 1
1 1 1 0 0 0 0 0 0 0 0 0 0 0 0 0 0 0 2 5 7 7 7 10 13 14 13 12 9 7 6 6 4 3 3 3 4 5 4 3 2 2 2 1
1 1 0 0 0 0 0 0 0 0 0 0 0 0 0 1 0 0 2 7 8 8 7 9 12 14 13 11 9 8 7 7 5 4 3 4 5 6 5 4 3 3 3 2
1 1 0 0 0 0 0 0 0 0 0 0 0 0 1 1 0 0 3 8 9 8 7 9 12 14 14 13 11 9 9 9 7 5 4 5 6 6 5 4 3 3 4 4
3 3 1 0 0 0 0 0 0 0 0 0 0 0 1 0 0 0 3 8 10 7 7 10 14 16 15 14 12 11 10 10 9 7 6 5 6 6 4 4 4 4 5 5
5 5 3 1 0 0 0 0 0 0 0 0 0 1 1 0 0 1 4 9 10 8 9 13 16 17 16 15 13 11 9 9 9 8 6 5 5 5 5 5 6 6 5 4
5 5 3 1 0 0 0 0 0 0 0 0 0 1 1 0 0 2 6 10 11 10 12 15 16 16 16 14 12 10 9 8 7 6 5 5 5 5 6 7 9 8 6 3
4 4 3 1 1 0 0 0 0 0 1 2 2 1 2 2 3 5 9 11 11 12 13 14 14 15 16 14 12 10 8 7 5 4 4 5 5 6 7 9 10 9 6 4
3 3 3 2 2 1 0 1 1 2 5 5 4 3 3 5 6 8 10 10 11 12 13 13 13 15 16 15 12 11 9 6 4 3 4 5 5 5 7 10 10 8 5 4
1 2 3 3 2 2 1 1 2 4 6 5 5 4 4 6 7 8 9 10 11 13 14 14 15 16 16 14 13 12 9 6 4 3 3 4 4 5 6 9 9 7 4 3
1 2 4 4 3 2 2 1 2 3 3 3 3 4 5 6 6 6 8 10 12 14 15 16 15 15 14 13 12 10 8 6 4 4 4 4 4 4 6 7 6 5 3 2
1 2 5 6 3 1 1 1 1 1 1 1 2 3 5 6 6 5 5 8 10 13 15 15 15 14 13 12 10 7 6 5 6 6 7 6 4 5 8 8 5 2 1 1
0 2 5 5 2 0 0 0 0 0 0 0 1 2 5 7 7 6 5 6 8 11 12 13 13 13 12 11 8 5 5 6 9 10 10 8 4 4 8 8 5 1 0 0
0 1 3 2 1 0 0 0 0 0 0 0 0 1 3 6 7 6 6 6 7 9 11 11 12 11 11 10 8 5 5 8 10 11 10 8 5 4 6 7 5 2 0 0

GEFSCGP_con_prob3kmehi_228.txt.gz
EHI
0 0 0 0 0 0 0 0 0 0 0 0 0 0 1 3 5 7 11 14 14 15 14 14 16 16 15 15 16 15 11 7 6 6 6 4 2 1 0 0 0 0 0 0
0 0 0 0 0 0 0 0 0 0 0 0 0 0 0 1 3 6 9 11 13 13 12 12 15 16 16 16 16 14 11 8 7 6 5 3 1 0 0 0 0 0 0 0
0 0 0 0 0 0 0 0 0 0 0 0 0 0 0 1 3 5 6 8 10 10 9 10 12 14 16 16 15 12 10 9 7 6 4 3 1 0 0 0 0 0 0 0
0 0 0 0 0 0 0 0 0 0 0 0 0 0 1 4 5 5 6 7 9 9 8 8 9 11 14 15 13 10 8 7 6 4 3 2 1 0 0 0 0 0 0 0
0 0 0 0 0 0 0 0 0 0 0 0 0 0 2 5 7 7 6 6 6 6 5 6 7 8 10 12 11 9 7 6 4 3 3 2 1 0 0 0 0 0 0 0
0 0 0 0 0 0 0 0 0 0 0 0 0 0 2 5 7 7 6 4 4 3 3 4 5 7 9 10 9 8 6 4 3 3 3 2 1 0 0 0 0 0 0 0
0 0 0 0 0 0 0 0 0 0 0 0 0 0 1 4 6 6 4 3 2 2 1 1 3 6 9 9 9 7 5 3 3 3 3 2 1 0 0 0 0 0 0 0
0 0 0 0 0 0 0 0 0 0 0 0 0 0 0 2 4 3 1 1 1 1 1 0 2 5 8 9 8 6 4 3 3 3 3 1 0 0 0 0 0 0 0 0
0 0 0 0 0 0 0 0 0 0 0 0 0 0 0 0 1 1 0 0 0 0 0 0 1 4 7 8 7 6 3 3 3 3 2 1 0 0 0 0 0 0 0 0
0 0 0 0 0 0 0 0 0 0 0 0 0 0 0 0 0 0 0 0 0 0 0 1 2 3 5 6 6 5 2 1 2 1 1 0 0 0 0 0 0 0 0 0
0 0 0 0 0 0 0 0 0 0 0 0 0 0 0 0 0 0 0 0 0 0 1 3 3 3 4 6 6 4 1 0 0 0 0 0 0 0 0 0 0 0 0 0
0 0 0 0 0 0 0 0 0 0 0 0 0 0 0 0 0 0 0 0 1 1 4 6 5 5 5 6 5 3 1 0 0 0 0 0 0 0 0 0 0 0 0 0
0 0 0 0 0 0 0 0 0 0 0 0 0 0 0 0 0 0 0 0 1 3 6 8 7 6 6 5 4 2 0 0 0 0 0 0 0 0 0 0 0 0 0 0
0 0 0 0 0 0 0 0 0 0 0 0 0 0 0 0 0 0 0 0 2 3 6 8 8 7 6 3 1 0 0 0 0 0 0 0 0 0 0 0 0 0 0 0
0 0 0 0 0 0 0 0 0 0 0 0 0 0 0 0 0 0 0 1 2 3 5 6 7 7 6 4 2 1 0 0 0 0 0 0 0 0 0 0 0 0 0 0
0 0 0 0 0 0 0 0 0 0 0 0 0 0 0 0 0 0 0 1 2 3 3 3 5 7 7 6 5 4 2 1 0 0 0 0 0 0 0 0 0 0 0 0
0 0 0 0 0 0 0 0 0 0 0 0 0 0 0 0 0 0 0 1 2 3 2 2 3 5 6 6 7 7 6 4 1 0 0 0 0 0 0 0 0 0 0 0
0 0 0 0 0 0 0 0 0 0 0 0 0 0 0 0 1 1 1 1 1 2 2 1 1 3 5 5 6 8 8 6 3 1 1 0 0 0 0 0 0 0 0 0
0 0 0 0 0 0 0 0 0 0 0 0 0 0 0 1 2 2 2 1 1 2 2 2 1 2 3 3 4 7 8 6 4 3 2 1 1 1 1 1 1 1 1 0
0 0 0 0 0 0 0 0 0 0 0 0 0 0 1 2 3 3 2 2 1 2 3 3 2 2 2 2 3 5 6 6 4 3 3 3 2 2 2 2 2 2 1 1
0 0 0 0 0 0 0 0 0 0 0 0 0 1 2 2 2 2 2 2 2 3 3 3 2 1 1 2 3 4 5 5 4 3 3 3 3 3 3 3 2 2 1 0
0 0 0 0 0 0 0 0 0 0 0 0 0 1 1 1 1 2 2 3 3 3 3 2 2 2 1 2 3 3 3 3 3 2 2 1 1 2 2 1 1 1 0 0
0 0 0 0 0 0 0 0 0 0 0 0 0 0 0 0 0 1 3 3 3 3 2 1 1 2 2 2 2 1 1 1 1 1 1 0 0 1 1 0 0 0 0 0
0 0 1 1 0 0 0 0 0 0 0 0 0 0 1 1 0 1 2 3 3 1 1 0 0 1 1 1 1 0 0 0 0 0 0 0 0 0 0 0 0 0 0 0
0 0 1 2 1 0 0 0 0 0 0 0 0 0 1 1 0 0 1 2 2 1 0 0 0 0 0 0 0 0 0 0 0 0 0 0 0 0 0 0 0 0 0 0
0 0 1 2 1 0 0 0 0 0 0 0 0 0 1 1 0 0 0 1 1 0 0 0 0 0 0 0 0 0 0 0 0 0 0 0 0 0 0 0 0 0 0 0

GEFSCGP_con_prob3kmehi_234.txt.gz
EHI
0 0 0 0 0 0 0 0 0 0 0 0 0 1 2 4 5 6 6 4 4 6 6 5 7 9 9 9 7 6 6 5 4 2 0 0 0 0 0 1 2 2 3 3
0 0 0 0 0 0 0 0 0 0 0 0 0 1 2 3 4 5 5 4 4 5 5 4 5 7 8 8 7 6 6 5 4 3 1 0 0 0 0 0 1 1 2 2
0 0 0 0 0 0 0 0 0 0 0 0 0 0 1 1 1 3 4 4 4 4 4 3 3 5 6 6 6 6 5 5 5 4 2 1 1 0 0 0 0 0 1 1
0 0 0 0 0 0 0 0 0 0 0 0 0 0 0 0 0 1 2 3 3 3 3 3 3 3 3 3 4 4 4 5 6 5 3 2 2 1 0 0 0 0 0 0
0 0 0 0 0 0 0 0 0 0 0 0 0 0 0 0 0 0 1 1 2 2 2 4 4 3 2 1 2 3 4 4 5 5 4 3 2 1 0 0 0 0 0 0
0 0 0 0 0 0 0 0 0 0 0 0 0 0 0 0 0 0 0 0 1 1 1 3 5 5 2 1 1 3 3 3 4 5 4 3 1 0 0 0 0 0 0 0
0 0 0 0 0 0 0 0 0 0 0 0 0 0 0 0 0 0 0 0 0 0 1 2 4 4 2 2 3 3 3 3 3 4 3 2 1 0 0 0 0 0 0 0
0 0 0 0 0 0 0 0 0 0 0 0 0 0 0 0 0 0 0 0 0 0 0 1 1 2 1 2 3 4 4 3 3 3 3 1 0 0 0 0 0 0 0 0
0 0 0 0 0 0 0 0 0 0 0 0 0 0 0 0 0 0 0 0 0 0 0 0 0 0 0 1 2 4 4 3 3 3 2 1 0 0 0 0 0 0 0 0
0 0 0 0 0 0 0 0 0 0 0 0 0 0 0 0 0 0 0 0 0 0 0 0 0 0 0 0 1 3 4 4 3 3 2 1 0 0 0 0 0 0 0 0
0 0 0 0 0 0 0 0 0 0 0 0 0 0 0 0 0 0 0 0 0 0 0 0 0 0 0 0 1 3 4 4 3 3 1 0 0 0 0 0 0 0 0 0
0 0 0 0 0 0 0 0 0 0 0 0 0 0 0 0 0 0 0 0 0 0 0 0 0 0 0 0 1 4 5 4 3 2 1 0 0 0 0 0 0 0 0 0
0 0 0 0 0 0 0 0 0 0 0 0 0 0 0 0 0 0 0 0 0 0 0 0 0 0 0 0 2 5 6 4 2 1 0 0 0 0 0 0 0 0 0 0
0 0 0 0 0 0 0 0 0 0 0 0 0 0 0 0 0 0 0 0 0 0 0 0 0 0 0 0 2 5 5 3 1 0 0 0 0 0 0 0 0 0 0 0
0 0 0 0 0 0 0 0 0 0 0 0 0 0 0 0 0 0 0 0 0 0 0 0 0 0 0 0 2 4 4 2 0 0 0 0 0 0 0 0 0 0 0 0
0 0 0 0 0 0 0 0 0 0 0 0 0 0 0 0 0 0 0 0 0 0 0 0 0 0 0 0 0 2 2 1 0 0 0 0 0 0 0 0 0 0 0 0
0 0 0 0 0 0 0 0 0 0 0 0 0 0 0 0 0 0 0 0 0 0 0 0 0 0 0 0 0 0 0 0 0 0 0 0 0 0 0 0 0 0 0 0
0 0 0 0 0 0 0 0 0 0 0 0 0 0 0 0 0 0 0 0 0 0 0 0 0 0 0 0 0 0 0 0 0 0 0 0 0 0 0 0 0 0 0 0
0 0 0 0 0 0 0 0 0 0 0 0 0 0 0 0 0 0 0 0 0 0 0 0 0 0 0 0 0 0 0 0 0 0 0 0 0 0 0 0 0 0 0 0
0 0 0 0 0 0 0 0 0 0 0 0 0 0 0 0 0 0 0 0 0 0 0 0 0 0 0 0 0 0 0 0 0 0 0 0 0 0 0 0 0 0 0 0
0 0 0 0 0 0 0 0 0 0 0 0 0 0 0 0 0 0 0 0 0 0 0 0 0 0 0 1 1 0 0 0 0 0 0 0 0 0 0 0 0 0 0 0
0 0 0 0 0 0 0 0 0 0 0 0 0 0 0 0 0 0 0 0 0 0 0 0 0 0 1 2 1 0 0 0 0 0 0 0 0 0 0 0 0 0 0 0
0 0 0 0 0 0 0 0 0 0 0 0 0 0 0 0 0 0 0 0 0 0 0 0 0 0 1 1 1 0 0 1 1 1 0 0 0 0 0 0 0 0 0 0
0 0 0 0 0 0 0 0 0 0 0 0 0 0 0 0 0 0 0 0 0 0 0 0 0 0 0 0 0 0 0 1 1 1 0 0 0 0 0 0 0 0 0 0
0 0 0 0 0 0 0 0 0 0 0 0 0 0 0 0 0 0 0 0 0 0 0 0 0 0 0 0 0 0 0 0 1 1 0 0 0 0 0 0 0 0 0 0
0 0 0 0 0 0 0 0 0 0 0 0 0 0 0 0 0 0 0 0 0 0 0 0 0 0 0 0 0 0 0 0 0 0 0 0 0 0 0 0 0 0 0 0

GEFSCGP_con_prob3kmehi_240.txt.gz
EHI
0 0 0 0 0 0 0 0 0 0 0 0 0 0 1 0 1 4 6 7 8 9 10 13 15 13 11 14 16 14 10 10 13 15 15 15 14 12 10 9 7 7 6 6
0 0 0 0 0 0 0 0 0 0 0 0 0 1 1 1 1 3 5 7 8 9 10 13 15 14 12 14 16 14 10 9 10 12 14 15 14 12 10 7 7 6 5 4
0 0 0 0 0 0 0 0 0 0 0 0 0 1 1 1 1 2 3 5 7 8 10 11 13 14 14 14 15 14 11 9 9 9 12 14 13 11 8 6 6 5 3 2
0 0 0 0 0 0 0 0 0 0 0 0 0 0 1 2 2 3 3 5 7 9 9 8 9 11 12 13 14 13 12 11 10 10 12 14 12 9 7 6 6 5 3 2
0 0 0 0 0 0 0 0 0 0 0 0 0 0 0 2 3 3 4 6 10 11 9 8 8 9 9 10 11 12 11 11 10 11 14 15 12 8 6 6 6 5 3 1
0 0 0 0 0 0 0 0 0 0 0 0 0 0 0 1 2 3 4 6 10 12 10 8 8 8 7 7 8 10 10 10 10 12 14 14 12 11 9 6 5 3 1 0
0 0 0 0 0 0 0 0 0 0 0 0 0 0 1 2 2 3 4 6 8 10 8 7 7 7 6 6 7 8 9 11 12 12 13 12 12 13 11 7 4 2 1 0
0 0 0 0 0 0 0 0 0 0 0 0 0 0 1 3 3 2 4 6 8 8 6 4 4 5 6 6 7 8 9 12 13 12 12 11 11 12 11 7 3 1 0 0
0 0 0 0 0 0 0 0 0 0 0 0 0 0 1 2 2 3 4 5 7 7 4 2 1 2 4 6 7 8 9 11 11 10 9 9 9 9 9 7 3 1 0 0
0 0 0 0 0 0 0 0 0 0 0 0 0 0 0 1 2 3 3 5 7 7 5 2 1 0 2 5 7 7 8 8 7 6 6 6 6 7 7 5 3 1 0 0
0 0 0 0 0 0 0 0 0 0 0 0 0 0 0 1 2 3 3 5 7 7 6 5 2 1 2 5 6 6 6 6 4 4 5 6 5 4 4 3 1 0 0 0
0 0 0 0 0 0 0 0 0 0 0 0 0 1 1 1 2 4 4 6 7 8 7 6 3 2 3 5 6 6 6 6 5 5 6 7 6 4 3 2 1 0 0 0
0 0 0 0 0 0 0 0 0 0 0 0 0 1 1 1 2 4 6 6 7 8 7 6 5 4 5 6 7 7 6 6 6 7 7 8 7 5 3 2 0 0 0 0
0 0 0 0 0 0 0 0 0 0 0 0 0 0 0 0 1 4 7 7 6 6 7 7 7 7 8 9 8 7 7 7 8 9 9 9 7 6 5 3 1 1 1 0
0 0 0 0 0 0 0 0 0 0 0 0 0 0 1 1 2 4 8 8 6 5 7 8 9 10 10 10 9 8 8 8 9 10 9 8 7 6 6 5 4 3 2 1
0 0 0 0 0 0 0 0 0 0 0 0 0 1 2 3 4 6 8 7 5 4 5 7 10 11 10 10 10 9 9 9 9 9 9 8 7 6 6 6 5 4 3 1
0 0 0 0 0 0 0 0 0 0 1 1 1 2 3 4 6 8 8 5 3 2 2 4 9 12 11 10 10 10 9 8 8 8 8 7 6 6 6 6 6 5 3 1
0 0 0 0 0 0 0 0 0 1 2 2 3 3 2 3 5 7 7 5 4 3 3 5 8 11 12 11 11 10 8 7 6 6 6 6 6 6 6 6 6 6 4 2
0 0 0 0 0 0 0 0 0 1 2 3 3 3 3 3 5 7 7 6 6 7 8 9 9 10 12 13 13 11 8 6 5 4 4 5 6 6 6 6 6 6 5 2
0 0 0 0 0 0 0 0 0 1 1 1 1 2 3 4 5 7 7 7 8 11 13 12 11 11 13 15 17 14 10 6 4 3 3 4 4 5 6 7 7 7 5 2
0 0 0 0 0 0 0 0 0 0 0 0 0 1 2 2 3 5 6 6 8 12 13 13 12 13 14 15 15 14 10 7 5 5 5 4 4 4 5 7 7 6 3 1
0 1 1 1 0 0 0 0 0 0 0 0 1 1 2 1 1 3 5 5 7 9 10 11 12 13 13 12 12 11 10 9 8 9 8 7 6 5 5 5 5 3 1 0
1 1 2 1 0 0 0 0 0 0 0 1 2 2 1 0 1 3 4 4 5 5 6 8 9 10 10 10 10 10 11 10 10 11 11 9 7 5 4 4 4 2 1 0
0 1 1 1 0 0 0 0 0 0 0 0 1 1 0 0 1 2 3 3 3 3 4 4 4 5 6 6 6 8 10 11 10 11 12 9 6 4 3 3 3 3 2 1
0 0 0 0 0 0 0 0 0 0 0 0 0 0 0 0 1 1 1 2 2 2 2 2 2 2 2 1 3 5 9 11 11 11 9 7 5 3 2 2 2 2 2 1
0 0 0 0 0 0 0 0 0 0 0 0 0 0 0 0 0 0 0 0 1 1 2 2 2 1 0 0 1 4 7 11 13 10 7 5 4 2 1 1 1 1 1 0